This is the latest recevied weather packets stored in our database for station/object DM4XI-13. If no packets are shown the sender has not sent any weather packets the latest 10 day(s).
| Time | Temp. | Humidity | Pressure | Rain* | Wind** | Luminosity | Snow |
|---|---|---|---|---|---|---|---|
| 1777733984 | 26.11° C | 22% | 1016.7 hPa | 0 mm | 1.34 m/s, 178° | 309 W/m² | - |
| 1777733923 | 26.11° C | 22% | 1016.8 hPa | 0 mm | 0.45 m/s, 210° | 298 W/m² | - |
| 1777733862 | 26.11° C | 21% | 1016.8 hPa | 0 mm | 1.34 m/s, 188° | 299 W/m² | - |
| 1777733801 | 26.11° C | 21% | 1016.9 hPa | 0 mm | 0 m/s | 312 W/m² | - |
| 1777733740 | 25.56° C | 21% | 1016.8 hPa | 0 mm | 0.45 m/s, 246° | 310 W/m² | - |
| 1777733679 | 25.56° C | 21% | 1016.8 hPa | 0 mm | 0.45 m/s, 246° | 305 W/m² | - |
| 1777733618 | 25.56° C | 22% | 1017 hPa | 0 mm | 0.45 m/s, 185° | 310 W/m² | - |
| 1777733557 | 25.56° C | 22% | 1017 hPa | 0 mm | 0 m/s | 306 W/m² | - |
| 1777733496 | 25.56° C | 22% | 1016.9 hPa | 0 mm | 0.89 m/s, 197° | 306 W/m² | - |
| 1777733435 | 25.56° C | 22% | 1017 hPa | 0 mm | 1.34 m/s, 186° | 317 W/m² | - |
| 1777733374 | 25.56° C | 22% | 1016.9 hPa | 0 mm | 1.34 m/s, 182° | 316 W/m² | - |
| 1777733313 | 26.11° C | 24% | 1017 hPa | 0 mm | 1.79 m/s, 188° | 317 W/m² | - |
| 1777733252 | 26.11° C | 23% | 1016.8 hPa | 0 mm | 2.24 m/s, 217° | 309 W/m² | - |
| 1777733191 | 26.11° C | 23% | 1016.7 hPa | 0 mm | 1.79 m/s, 188° | 315 W/m² | - |
| 1777733130 | 26.11° C | 22% | 1016.9 hPa | 0 mm | 0.45 m/s, 166° | 324 W/m² | - |
| 1777733069 | 26.11° C | 22% | 1017 hPa | 0 mm | 1.79 m/s, 216° | 315 W/m² | - |
| 1777733008 | 26.11° C | 23% | 1017.1 hPa | 0 mm | 0.45 m/s, 184° | 319 W/m² | - |
| 1777732947 | 26.11° C | 22% | 1017.1 hPa | 0 mm | 0.89 m/s, 195° | 328 W/m² | - |
| 1777732886 | 26.11° C | 23% | 1016.9 hPa | 0 mm | 0.89 m/s, 200° | 337 W/m² | - |
| 1777732825 | 26.11° C | 23% | 1017 hPa | 0 mm | 0.89 m/s, 242° | 332 W/m² | - |
| 1777732764 | 25.56° C | 22% | 1017 hPa | 0 mm | 0.45 m/s, 195° | 335 W/m² | - |
| 1777732703 | 25.56° C | 22% | 1017 hPa | 0 mm | 0 m/s | 325 W/m² | - |
| 1777732642 | 25.56° C | 21% | 1017.1 hPa | 0 mm | 0.45 m/s, 217° | 324 W/m² | - |
| 1777732581 | 25.56° C | 23% | 1017 hPa | 0 mm | 0 m/s | 337 W/m² | - |
| 1777732520 | 25.56° C | 22% | 1017 hPa | 0 mm | 0.45 m/s, 189° | 321 W/m² | - |
* Rain latest hour (hover to see other rain measurements)
** Current wind speed in m/s (hover to see current wind gust speed)